Time,TemperatureF,DewpointF,PressureIn,WindDirection,WindDirectionDegrees,WindSpeedMPH,WindSpeedGustMPH,Humidity,HourlyPrecipIn,Conditions,Clouds,dailyrainin,SoftwareType,DateUTC
2013-01-27 00:12:00,57.6,57.0,29.97,NE,45,5.8,-999.0,98,-99.99,,,0.00,Acu-Link.com,2013-01-27 06:12:00,
2013-01-27 00:28:00,57.9,57.4,29.96,SSE,157,6.3,-999.0,98,-99.99,,,0.00,Acu-Link.com,2013-01-27 06:28:00,
2013-01-27 00:43:00,57.9,57.4,29.96,SSE,157,4.3,-999.0,98,-99.99,,,0.00,Acu-Link.com,2013-01-27 06:43:00,
2013-01-27 00:58:00,57.6,57.0,29.96,SE,135,3.1,-999.0,98,-99.99,,,0.00,Acu-Link.com,2013-01-27 06:58:00,
2013-01-27 01:13:00,57.6,57.0,29.96,SSE,157,4.7,-999.0,98,-99.99,,,0.00,Acu-Link.com,2013-01-27 07:13:00,
2013-01-27 01:28:00,57.6,57.0,29.96,ESE,112,7.8,-999.0,98,-99.99,,,0.00,Acu-Link.com,2013-01-27 07:28:00,
2013-01-27 01:44:00,57.6,57.0,29.97,SE,135,3.8,-999.0,98,-99.99,,,0.00,Acu-Link.com,2013-01-27 07:44:00,
2013-01-27 01:59:00,57.4,56.8,29.96,South,180,4.7,-999.0,98,-99.99,,,0.00,Acu-Link.com,2013-01-27 07:59:00,
2013-01-27 02:14:00,57.2,56.6,29.96,SSE,157,4.3,-999.0,98,-99.99,,,0.00,Acu-Link.com,2013-01-27 08:14:00,
2013-01-27 02:29:00,56.8,56.3,29.95,NNE,22,4.3,-999.0,98,-99.99,,,0.00,Acu-Link.com,2013-01-27 08:29:00,
2013-01-27 02:45:00,56.8,56.0,29.94,SE,135,7.8,-999.0,97,-99.99,,,0.00,Acu-Link.com,2013-01-27 08:45:00,
2013-01-27 03:00:00,56.8,56.3,29.95,SSE,157,2.7,-999.0,98,-99.99,,,0.00,Acu-Link.com,2013-01-27 09:00:00,
2013-01-27 03:16:00,56.8,56.3,29.96,South,180,7.8,-999.0,98,-99.99,,,0.00,Acu-Link.com,2013-01-27 09:16:00,
2013-01-27 03:31:00,57.6,57.0,29.96,ESE,112,4.3,-999.0,98,-99.99,,,0.00,Acu-Link.com,2013-01-27 09:31:00,
2013-01-27 03:46:00,57.7,57.2,29.95,SSE,157,6.7,-999.0,98,-99.99,,,0.00,Acu-Link.com,2013-01-27 09:46:00,
2013-01-27 04:02:00,57.9,57.4,29.94,South,180,4.3,-999.0,98,-99.99,,,0.00,Acu-Link.com,2013-01-27 10:02:00,
2013-01-27 04:17:00,57.7,57.2,29.95,SSW,202,6.3,-999.0,98,-99.99,,,0.00,Acu-Link.com,2013-01-27 10:17:00,
2013-01-27 04:32:00,57.2,56.6,29.95,SSW,202,3.8,-999.0,98,-99.99,,,0.00,Acu-Link.com,2013-01-27 10:32:00,
2013-01-27 04:47:00,57.0,56.5,29.94,South,180,2.7,-999.0,98,-99.99,,,0.00,Acu-Link.com,2013-01-27 10:47:00,
2013-01-27 05:02:00,56.8,56.3,29.94,South,180,4.7,-999.0,98,-99.99,,,0.00,Acu-Link.com,2013-01-27 11:02:00,
2013-01-27 05:18:00,56.3,55.7,29.93,SE,135,2.2,-999.0,98,-99.99,,,0.00,Acu-Link.com,2013-01-27 11:18:00,
2013-01-27 05:33:00,56.3,55.7,29.94,SSE,157,3.1,-999.0,98,-99.99,,,0.00,Acu-Link.com,2013-01-27 11:33:00,
2013-01-27 05:48:00,56.3,55.7,29.94,South,180,1.6,-999.0,98,-99.99,,,0.00,Acu-Link.com,2013-01-27 11:48:00,
2013-01-27 06:03:00,55.9,53.3,29.93,South,180,2.2,-999.0,91,-99.99,,,0.00,Acu-Link.com,2013-01-27 12:03:00,
2013-01-27 06:18:00,55.9,50.9,29.93,SE,135,2.7,-999.0,83,-99.99,,,0.00,Acu-Link.com,2013-01-27 12:18:00,
2013-01-27 06:34:00,55.9,49.2,29.94,SE,135,2.2,-999.0,78,-99.99,,,0.00,Acu-Link.com,2013-01-27 12:34:00,
2013-01-27 06:49:00,55.9,50.2,29.94,SE,135,2.2,-999.0,81,-99.99,,,0.00,Acu-Link.com,2013-01-27 12:49:00,
2013-01-27 07:04:00,55.9,47.4,29.94,South,180,1.6,-999.0,73,-99.99,,,0.00,Acu-Link.com,2013-01-27 13:04:00,
2013-01-27 07:19:00,56.1,47.9,29.95,SSE,157,2.2,-999.0,74,-99.99,,,0.00,Acu-Link.com,2013-01-27 13:19:00,
2013-01-27 07:34:00,56.7,54.1,29.95,SE,135,2.7,-999.0,91,-99.99,,,0.00,Acu-Link.com,2013-01-27 13:34:00,
2013-01-27 07:50:00,56.8,54.5,29.95,SE,135,1.6,-999.0,92,-99.99,,,0.00,Acu-Link.com,2013-01-27 13:50:00,
2013-01-27 08:05:00,57.2,56.6,29.96,South,180,3.1,-999.0,98,-99.99,,,0.00,Acu-Link.com,2013-01-27 14:05:00,
2013-01-27 08:20:00,57.6,57.0,29.95,SE,135,1.6,-999.0,98,-99.99,,,0.00,Acu-Link.com,2013-01-27 14:20:00,
2013-01-27 08:35:00,57.9,57.4,29.96,ESE,112,3.8,-999.0,98,-99.99,,,0.00,Acu-Link.com,2013-01-27 14:35:00,
2013-01-27 08:50:00,58.6,58.1,29.96,SSE,157,5.8,-999.0,98,-99.99,,,0.00,Acu-Link.com,2013-01-27 14:50:00,
2013-01-27 09:06:00,59.5,59.0,29.97,SE,135,2.2,-999.0,98,-99.99,,,0.00,Acu-Link.com,2013-01-27 15:06:00,
2013-01-27 09:21:00,61.0,60.4,29.96,SSW,202,2.7,-999.0,98,-99.99,,,0.00,Acu-Link.com,2013-01-27 15:21:00,
2013-01-27 09:36:00,61.9,61.3,29.97,South,180,2.2,-999.0,98,-99.99,,,0.00,Acu-Link.com,2013-01-27 15:36:00,
2013-01-27 09:51:00,62.2,61.7,29.96,South,180,5.1,-999.0,98,-99.99,,,0.00,Acu-Link.com,2013-01-27 15:51:00,
2013-01-27 10:07:00,63.5,62.9,29.97,SE,135,5.8,-999.0,98,-99.99,,,0.00,Acu-Link.com,2013-01-27 16:07:00,
2013-01-27 10:22:00,64.6,64.0,29.96,SSE,157,2.7,-999.0,98,-99.99,,,0.00,Acu-Link.com,2013-01-27 16:22:00,
2013-01-27 10:37:00,65.1,64.5,29.96,SSE,157,3.1,-999.0,98,-99.99,,,0.00,Acu-Link.com,2013-01-27 16:37:00,
2013-01-27 10:52:00,67.6,66.2,29.96,SSE,157,3.8,-999.0,95,-99.99,,,0.00,Acu-Link.com,2013-01-27 16:52:00,
2013-01-27 11:07:00,68.0,66.5,29.95,SSE,157,7.8,-999.0,95,-99.99,,,0.00,Acu-Link.com,2013-01-27 17:07:00,
2013-01-27 11:23:00,68.2,65.8,29.95,South,180,7.8,-999.0,92,-99.99,,,0.00,Acu-Link.com,2013-01-27 17:23:00,
2013-01-27 11:38:00,68.9,65.2,29.94,SSW,202,12.5,-999.0,88,-99.99,,,0.00,Acu-Link.com,2013-01-27 17:38:00,
2013-01-27 11:53:00,68.9,64.9,29.93,SSW,202,9.8,-999.0,87,-99.99,,,0.00,Acu-Link.com,2013-01-27 17:53:00,
2013-01-27 12:08:00,70.7,64.6,29.93,SSW,202,8.3,-999.0,81,-99.99,,,0.00,Acu-Link.com,2013-01-27 18:08:00,
2013-01-27 12:23:00,70.7,63.9,29.93,SSE,157,9.8,-999.0,79,-99.99,,,0.00,Acu-Link.com,2013-01-27 18:23:00,
2013-01-27 12:39:00,70.7,63.9,29.91,South,180,9.8,-999.0,79,-99.99,,,0.00,Acu-Link.com,2013-01-27 18:39:00,
2013-01-27 12:54:00,71.6,63.6,29.90,SSE,157,11.0,-999.0,76,-99.99,,,0.00,Acu-Link.com,2013-01-27 18:54:00,
2013-01-27 13:09:00,73.9,63.1,29.89,SSW,202,14.5,-999.0,69,-99.99,,,0.00,Acu-Link.com,2013-01-27 19:09:00,
2013-01-27 13:24:00,74.5,62.8,29.88,South,180,8.9,-999.0,67,-99.99,,,0.00,Acu-Link.com,2013-01-27 19:24:00,
2013-01-27 13:39:00,73.0,62.7,29.87,South,180,8.9,-999.0,70,-99.99,,,0.00,Acu-Link.com,2013-01-27 19:39:00,
2013-01-27 13:55:00,73.0,62.3,29.86,South,180,11.4,-999.0,69,-99.99,,,0.00,Acu-Link.com,2013-01-27 19:55:00,
2013-01-27 14:10:00,75.0,62.9,29.86,SW,225,7.8,-999.0,66,-99.99,,,0.00,Acu-Link.com,2013-01-27 20:10:00,
2013-01-27 14:25:00,75.0,62.4,29.85,South,180,9.4,-999.0,65,-99.99,,,0.00,Acu-Link.com,2013-01-27 20:25:00,
2013-01-27 14:40:00,76.8,62.3,29.84,South,180,20.6,-999.0,61,-99.99,,,0.00,Acu-Link.com,2013-01-27 20:40:00,
2013-01-27 14:55:00,76.5,62.0,29.84,South,180,4.7,-999.0,61,-99.99,,,0.00,Acu-Link.com,2013-01-27 20:55:00,
2013-01-27 15:11:00,76.6,61.7,29.83,SSE,157,7.8,-999.0,60,-99.99,,,0.00,Acu-Link.com,2013-01-27 21:11:00,
2013-01-27 15:26:00,76.1,61.7,29.84,SSW,202,11.4,-999.0,61,-99.99,,,0.00,Acu-Link.com,2013-01-27 21:26:00,
2013-01-27 15:41:00,76.5,62.5,29.83,SSW,202,9.4,-999.0,62,-99.99,,,0.00,Acu-Link.com,2013-01-27 21:41:00,
2013-01-27 15:56:00,76.1,62.1,29.83,SSW,202,8.9,-999.0,62,-99.99,,,0.00,Acu-Link.com,2013-01-27 21:56:00,
2013-01-27 16:12:00,75.9,62.4,29.83,South,180,12.5,-999.0,63,-99.99,,,0.00,Acu-Link.com,2013-01-27 22:12:00,
2013-01-27 16:27:00,75.7,62.2,29.83,South,180,6.7,-999.0,63,-99.99,,,0.00,Acu-Link.com,2013-01-27 22:27:00,
2013-01-27 16:42:00,75.9,62.4,29.83,SSE,157,6.7,-999.0,63,-99.99,,,0.00,Acu-Link.com,2013-01-27 22:42:00,
2013-01-27 16:57:00,75.7,62.2,29.84,SSW,202,3.8,-999.0,63,-99.99,,,0.00,Acu-Link.com,2013-01-27 22:57:00,
2013-01-27 17:12:00,75.0,62.4,29.83,SSW,202,8.3,-999.0,65,-99.99,,,0.00,Acu-Link.com,2013-01-27 23:12:00,
2013-01-27 17:28:00,74.7,62.5,29.83,SSE,157,11.9,-999.0,66,-99.99,,,0.00,Acu-Link.com,2013-01-27 23:28:00,
2013-01-27 17:43:00,74.1,62.9,29.84,SSE,157,6.3,-999.0,68,-99.99,,,0.00,Acu-Link.com,2013-01-27 23:43:00,
2013-01-27 17:58:00,72.9,62.5,29.83,SSE,157,5.8,-999.0,70,-99.99,,,0.00,Acu-Link.com,2013-01-27 23:58:00,
2013-01-27 18:13:00,72.1,62.6,29.83,South,180,4.3,-999.0,72,-99.99,,,0.00,Acu-Link.com,2013-01-28 00:13:00,
2013-01-27 18:28:00,71.2,62.9,29.84,SSE,157,2.7,-999.0,75,-99.99,,,0.00,Acu-Link.com,2013-01-28 00:28:00,
2013-01-27 18:44:00,70.0,63.2,29.84,SSE,157,0.0,-999.0,79,-99.99,,,0.00,Acu-Link.com,2013-01-28 00:44:00,
2013-01-27 18:59:00,68.7,63.3,29.85,ESE,112,1.1,-999.0,83,-99.99,,,0.00,Acu-Link.com,2013-01-28 00:59:00,
2013-01-27 19:14:00,67.8,63.5,29.86,SSE,157,1.6,-999.0,86,-99.99,,,0.00,Acu-Link.com,2013-01-28 01:14:00,
2013-01-27 19:29:00,67.1,63.7,29.86,SE,135,0.0,-999.0,89,-99.99,,,0.00,Acu-Link.com,2013-01-28 01:29:00,
2013-01-27 19:44:00,66.4,64.0,29.86,SE,135,0.0,-999.0,92,-99.99,,,0.00,Acu-Link.com,2013-01-28 01:44:00,
2013-01-27 20:00:00,66.0,64.5,29.86,SSE,157,2.7,-999.0,95,-99.99,,,0.00,Acu-Link.com,2013-01-28 02:00:00,
2013-01-27 20:15:00,65.5,64.6,29.86,SE,135,0.0,-999.0,97,-99.99,,,0.00,Acu-Link.com,2013-01-28 02:15:00,
2013-01-27 20:30:00,64.2,63.6,29.87,SE,135,0.0,-999.0,98,-99.99,,,0.00,Acu-Link.com,2013-01-28 02:30:00,
2013-01-27 20:45:00,63.5,62.9,29.87,ESE,112,0.0,-999.0,98,-99.99,,,0.00,Acu-Link.com,2013-01-28 02:45:00,
2013-01-27 21:01:00,63.3,62.7,29.87,ESE,112,0.0,-999.0,98,-99.99,,,0.00,Acu-Link.com,2013-01-28 03:01:00,
2013-01-27 21:16:00,62.6,62.0,29.88,ESE,112,0.0,-999.0,98,-99.99,,,0.00,Acu-Link.com,2013-01-28 03:16:00,
2013-01-27 21:31:00,63.3,62.7,29.87,SE,135,1.6,-999.0,98,-99.99,,,0.00,Acu-Link.com,2013-01-28 03:31:00,
2013-01-27 21:46:00,64.2,63.6,29.88,ESE,112,0.0,-999.0,98,-99.99,,,0.00,Acu-Link.com,2013-01-28 03:46:00,
2013-01-27 22:01:00,64.4,63.8,29.88,ESE,112,1.6,-999.0,98,-99.99,,,0.00,Acu-Link.com,2013-01-28 04:01:00,
2013-01-27 22:17:00,64.8,64.2,29.89,SSE,157,2.2,-999.0,98,-99.99,,,0.00,Acu-Link.com,2013-01-28 04:17:00,
2013-01-27 22:32:00,65.3,64.7,29.89,SSE,157,2.7,-999.0,98,-99.99,,,0.00,Acu-Link.com,2013-01-28 04:32:00,
2013-01-27 22:47:00,65.8,65.3,29.89,SE,135,1.6,-999.0,98,-99.99,,,0.00,Acu-Link.com,2013-01-28 04:47:00,
2013-01-27 23:02:00,66.0,65.4,29.89,SSE,157,3.1,-999.0,98,-99.99,,,0.00,Acu-Link.com,2013-01-28 05:02:00,
2013-01-27 23:17:00,66.4,65.8,29.89,SSE,157,1.6,-999.0,98,-99.99,,,0.00,Acu-Link.com,2013-01-28 05:17:00,
2013-01-27 23:33:00,66.6,66.0,29.89,South,180,2.2,-999.0,98,-99.99,,,0.00,Acu-Link.com,2013-01-28 05:33:00,
2013-01-27 23:48:00,66.4,65.8,29.90,SSE,157,3.1,-999.0,98,-99.99,,,0.00,Acu-Link.com,2013-01-28 05:48:00,